DMSP 5D-2 F13 DEB, 42300

Orbit data source: Space-Track

DMSP 5D-2 F13 DEB, 42300 is space debris in SSO originally from a launch on Fri, 24 Mar 1995 UTC launched from the Air Force Western Test Range (AFWTR). Debris objects in space refer to the collection of defunct objects orbiting the Earth. Examples of debris include non-operational satellites, rocket bodies, and fragments generated from explosions, collisions, or faulty payload assembly.

Loading next visibility...
Identifier
42300, 1995-015HS
Orbit
SSO
Country
Flag of USUS
Related business
Manufacturer
Unknown
Mission
Spacecraft
Bus & Motor
Unknown
Mass
Unknown
Launch date (UTC)
1995-03-24 (31 years ago)
Launch vehicle
Unknown
Launch site
Air Force Western Test Range (AFWTR)
Object type
Payload
Rocket body
Debris
Shape & HBR
Unknown shape, 0.1 m
Radar Cross Section
Small (<0.1 m²)

Expand to show TLE details & history
Last TLE update: 2 days ago

TLE from 2 days ago
0 DMSP 5D-2 F13 DEB
1 42300U 95015HS  26126.05538161  .00005174  00000-0  14706-2 0  9992
2 42300  98.5915 170.5774 0025630  59.6354 300.7367 14.45606480495043
Epoch: 2026-05-06T01:19Z
TLE epoch observation values (Epoch: 2026-05-06T01:19:44.971Z)
Latitude
0.00005°
Longitude
-73.28135°
Altitude
733.696 km
Speed
7.493 km/s
True Right ascension
11h 22m 18s
True Declination
0° 00' 00"
Sunlit
Object was in full shadow at epoch
Visualization orbit readout
Latitude
Unknown
Longitude
Unknown
Altitude
Unknown
Speed
Unknown
Apparent Right ascension
Unknown
Apparent Declination
Unknown
Sunlit
N/A
Visualization observer readout
Local Sidereal Time
07:18:18
Azimuth
Unknown
Elevation
Unknown
Doppler factor
Unknown
Orbital elements
Apogee altitude
755.39 km
Perigee altitude
718.917 km
Semi-major axis
7,115.29 km
Eccentricity
0.00256
Inclination
98.5915°
RAAN
170.5774°
Arg. of periapsis
59.6354°
True anomaly
300.48385°
Mean anomaly
300.7367°
Eccentric anomaly
300.61031°
Mean motion
3.61621 °/min
Orbital period
99.55 mins
BSTAR
0.0014706
Loading maneuver chart data...
Computing Atmospheric mass density...

Documentation

Showing up to 5 results
|